Weather in Ermakovo

Russia / Vologda Oblast     59°11′34″N   39°42′23″E
temp.,
°C
wind,
m/s
gust,
m/s
humid.,
%
clouds,
%
prec.,
mm/h
press.,
hPa
HPBL,
m
13 april, tue
tue1300:00+8sse61487100 0.0 1030537
03:00+6sse41094100 0.0 1029391
06:00+6sse41099100 0.0 1027364
09:00+7sse51097100 0.0 1026360
12:00+13s61176100 0.0 1024544
15:00+16s61269100 0.0 1023935
18:00+14s41072100 0.0 1022267
21:00+11s4128299 0.0 1022219
14 april, wed
wed1400:00+9s4138093 0.0 1021221
03:00+8s41181100 0.0 1021177
06:00+8s412805 0.0 1020207
09:00+12ssw6136724 0.0 1019413
12:00+16ssw6105795 0.0 1019729
15:00+17ssw6125899 0.0 10181410
18:00+15sw4868100 0.1 1017231
21:00+11wsw3485100 0.2 101862
15 april, thu
thu1500:00+9n4797100 0.3 1019308
03:00+7n5893100 1.1 1020444
06:00+6nne599190 0.1 1021414
09:00+5nne51088100 0.8 1023520
12:00+5ne5988100 1.6 1024606
15:00+7e3780100 2.2 1024630
18:00+7ne5967100 0.1 1025630
21:00+4ne51171100 0.1 1026440
16 april, fri
fri1600:00+2ne4117586 0.0 1027372
03:000ne4108219 0.0 1028284
06:000ne412805 0.0 1029374
09:00+4ene69581 0.0 1029647
12:00+8ene57440 0.0 10291026
15:00+9ene67375 0.0 10291265
18:00+9ene48472 0.0 1029400
21:00+4ne38666 0.0 1030144
17 april, sat
sat1700:00+2ene387236 0.0 1031136
03:00+1ene34755 0.0 103268
06:00+1ene24754 0.0 103382
09:00+6ne34550 0.0 1033403
12:00+10ne354412 0.0 10321186
15:00+11nne45425 0.0 10321528
18:00+10nne46505 0.0 1031347
21:00+6nne35675 0.0 103276